Location: Friaudour
(46.0460°N, 1.2873°E)
Time: 04:35:16
(UTC+00:00)

Helios 1B rocket - Pass Details

Date: 14 July 2020
Orbit: 574 x 584 km, 98.1° (Epoch: 06 August)

Event Time Altitude Azimuth Distance (km) Brightness Sun altitude
Rises 00:26:20 0° 15° (NNE) 2,808 7.4 -22.1°
Reaches altitude 10° 00:28:31 10° 17° (NNE) 1,902 6.2 -22.0°
Maximum altitude 00:32:38 75° 102° (ESE) 603 2.4 -21.9°
Enters shadow 00:32:57 70° 147° (SSE) 619 2.3 -21.9°
